Lexington, NE

3:51 AM CST on November 22, 2019 (GMT -0600)
Kelly

Weather History for KLXN - June, 2019

Change the Weather History Date:

Tuesday, June 11, 2019

  Actual Average Record
Temperature  
Mean Temperature 60 °F -  
Max Temperature 72 °F 77 °F 102 °F (2013)
Min Temperature 49 °F 53 °F 48 °F (2011)
Degree Days  
Heating Degree Days 5    
Growing Degree Days 10 (Base 50)    
Moisture  
Dew Point 50 °F    
Average Humidity 68    
Maximum Humidity 97    
Minimum Humidity 43    
Precipitation  
Precipitation 0.12 in - - ()
Sea Level Pressure  
Sea Level Pressure 30.10 in    
Wind  
Wind Speed 10 mph (SW)    
Max Wind Speed 17 mph    
Max Gust Speed 25 mph    
Visibility 10 miles    
Events Rain    
Averages and records for this station are not official NWS values.
T = Trace of Precipitation, MM = Missing Value Source: NWS Daily Summary

Daily Weather History Graph

Daily Weather History Graph

Search for Another Location

Airport or City:

Astronomy

Jun. 11, 2019 Rise Set
Actual Time 6:07 AM CDT 9:10 PM CDT
Civil Twilight 5:34 AM CDT 9:43 PM CDT
Nautical Twilight 4:51 AM CDT 10:26 PM CDT
Astronomical Twilight 4:01 AM CDT 11:16 PM CDT
Moon 3:09 PM CDT (6/11) 2:54 AM CDT (6/11)
Length of Visible Light 16h 09m
Length of Day
15h 03m
Waxing Gibbous, 66% of the Moon is Illuminated
Jun 11
Waxing Gibbous
Jun 17
Full
Jun 25
Last Quarter
Jul 2
New
Jul 9
First Quarter

Hourly Weather History & Observations

Time (CDT) Temp. Dew Point Humidity Pressure Visibility Wind Dir Wind Speed Gust Speed Precip Events Conditions
12:15 AM 59.9 °F 45.1 °F 58% 30.18 in 10.0 mi South 17.3 mph - N/A   Clear
12:35 AM 59.0 °F 45.5 °F 61% 30.17 in 10.0 mi South 17.3 mph 21.9 mph N/A   Clear
12:55 AM 58.3 °F 45.9 °F 63% 30.17 in 10.0 mi South 15.0 mph 21.9 mph N/A   Clear
1:15 AM 57.9 °F 45.7 °F 64% 30.17 in 10.0 mi South 15.0 mph - N/A   Clear
1:35 AM 57.7 °F 45.5 °F 64% 30.17 in 10.0 mi South 13.8 mph 21.9 mph N/A   Clear
1:55 AM 57.6 °F 45.5 °F 64% 30.16 in 10.0 mi South 11.5 mph - N/A   Clear
2:15 AM 58.1 °F 45.5 °F 63% 30.15 in 10.0 mi South 12.7 mph - N/A   Clear
2:35 AM 59.0 °F 45.3 °F 60% 30.15 in 10.0 mi South 12.7 mph - N/A   Scattered Clouds
2:55 AM 59.7 °F 44.4 °F 57% 30.14 in 10.0 mi South 12.7 mph 21.9 mph N/A   Clear
3:15 AM 59.4 °F 44.2 °F 57% 30.13 in 10.0 mi South 15.0 mph 21.9 mph N/A   Clear
3:35 AM 59.0 °F 44.4 °F 58% 30.13 in 10.0 mi South 12.7 mph 21.9 mph N/A   Clear
3:55 AM 57.7 °F 44.6 °F 62% 30.13 in 10.0 mi South 9.2 mph - N/A   Clear
4:15 AM 55.9 °F 45.1 °F 67% 30.13 in 10.0 mi SSE 4.6 mph - N/A   Clear
4:35 AM 54.9 °F 45.0 °F 69% 30.13 in 10.0 mi SE 3.5 mph - N/A   Clear
4:55 AM 54.5 °F 45.1 °F 71% 30.13 in 10.0 mi ESE 4.6 mph - N/A   Clear
5:15 AM 53.8 °F 45.1 °F 73% 30.12 in 10.0 mi SE 4.6 mph - N/A   Clear
5:35 AM 52.3 °F 45.5 °F 78% 30.12 in 10.0 mi ESE 4.6 mph - N/A   Clear
5:55 AM 52.9 °F 45.5 °F 76% 30.12 in 10.0 mi SE 5.8 mph - N/A   Clear
6:15 AM 52.2 °F 45.5 °F 78% 30.12 in 10.0 mi SE 5.8 mph - N/A   Clear
6:35 AM 50.0 °F 45.7 °F 85% 30.13 in 10.0 mi East 4.6 mph - N/A   Clear
6:55 AM 49.5 °F 46.4 °F 89% 30.12 in 10.0 mi ESE 5.8 mph - N/A   Clear
7:15 AM 54.0 °F 47.7 °F 79% 30.12 in 10.0 mi SE 5.8 mph - N/A   Scattered Clouds
7:35 AM 56.7 °F 48.7 °F 75% 30.13 in 10.0 mi SSE 4.6 mph - N/A   Clear
7:55 AM 57.2 °F 49.3 °F 75% 30.12 in 10.0 mi SSE 4.6 mph - N/A   Clear
8:15 AM 58.8 °F 48.6 °F 69% 30.12 in 10.0 mi SSE 5.8 mph - N/A   Clear
8:35 AM 59.0 °F 49.3 °F 70% 30.11 in 10.0 mi South 6.9 mph - N/A   Clear
8:55 AM 60.3 °F 49.6 °F 68% 30.11 in 10.0 mi South 9.2 mph - N/A   Clear
9:15 AM 61.3 °F 48.9 °F 64% 30.10 in 10.0 mi SSW 13.8 mph 17.3 mph N/A   Clear
9:35 AM 62.2 °F 48.0 °F 60% 30.10 in 10.0 mi SSW 13.8 mph - N/A   Clear
9:55 AM 62.4 °F 49.1 °F 62% 30.10 in 10.0 mi SSW 9.2 mph - N/A   Clear
10:15 AM 62.6 °F 49.3 °F 62% 30.08 in 10.0 mi South 13.8 mph 18.4 mph N/A   Scattered Clouds
10:35 AM 61.9 °F 48.4 °F 61% 30.09 in 10.0 mi SW 11.5 mph - N/A   Mostly Cloudy
10:55 AM 63.3 °F 50.0 °F 62% 30.10 in 10.0 mi SW 9.2 mph - N/A   Scattered Clouds
11:15 AM 63.0 °F 50.4 °F 63% 30.09 in 10.0 mi SSW 8.1 mph - N/A   Scattered Clouds
11:35 AM 65.3 °F 51.6 °F 61% 30.08 in 10.0 mi South 9.2 mph - N/A   Clear
11:55 AM 65.3 °F 51.4 °F 61% 30.09 in 10.0 mi SSW 8.1 mph - N/A   Clear
12:15 PM 66.2 °F 50.9 °F 58% 30.09 in 10.0 mi WSW 8.1 mph - N/A   Clear
12:35 PM 66.6 °F 50.9 °F 57% 30.08 in 10.0 mi WNW 5.8 mph - N/A   Clear
12:55 PM 66.7 °F 50.4 °F 56% 30.08 in 10.0 mi WSW 4.6 mph - N/A   Scattered Clouds
1:15 PM 67.1 °F 52.0 °F 58% 30.08 in 10.0 mi NW 3.5 mph - N/A   Scattered Clouds
1:35 PM 66.7 °F 50.0 °F 55% 30.08 in 10.0 mi NW 3.5 mph - N/A   Scattered Clouds
1:55 PM 66.2 °F 53.2 °F 63% 30.09 in 10.0 mi WNW 4.6 mph - N/A   Scattered Clouds
2:15 PM 68.0 °F 52.7 °F 58% 30.08 in 10.0 mi NNW 3.5 mph - N/A   Clear
2:35 PM 69.1 °F 52.9 °F 56% 30.06 in 10.0 mi North 3.5 mph - N/A   Clear
2:55 PM 68.7 °F 54.0 °F 59% 30.06 in 10.0 mi Calm Calm - N/A   Scattered Clouds
3:15 PM 71.4 °F 53.1 °F 52% 30.06 in 10.0 mi North 9.2 mph 19.6 mph N/A   Scattered Clouds
3:35 PM 71.8 °F 53.1 °F 52% 30.06 in 10.0 mi NNE 11.5 mph 25.3 mph N/A   Clear
3:55 PM 70.7 °F 51.3 °F 50% 30.05 in 10.0 mi NNE 15.0 mph 19.6 mph N/A   Scattered Clouds
4:15 PM 70.7 °F 50.4 °F 48% 30.06 in 10.0 mi North 15.0 mph 19.6 mph N/A   Clear
4:35 PM 70.5 °F 50.0 °F 48% 30.05 in 10.0 mi NNE 12.7 mph 18.4 mph N/A   Clear
4:55 PM 71.2 °F 48.9 °F 45% 30.04 in 10.0 mi NNE 10.4 mph 17.3 mph N/A   Clear
5:15 PM 71.4 °F 49.5 °F 46% 30.04 in 10.0 mi NE 10.4 mph - N/A   Scattered Clouds
5:35 PM 71.8 °F 51.1 °F 48% 30.04 in 10.0 mi NNE 6.9 mph - N/A   Clear
5:55 PM 71.8 °F 48.4 °F 43% 30.04 in 10.0 mi NE 3.5 mph - N/A   Clear
6:15 PM 69.1 °F 49.1 °F 49% 30.04 in 10.0 mi North 11.5 mph - N/A   Mostly Cloudy
6:35 PM 67.3 °F 50.5 °F 55% 30.05 in 10.0 mi North 17.3 mph 20.7 mph N/A Rain Light Rain
6:55 PM 67.3 °F 53.8 °F 62% 30.04 in 10.0 mi North 9.2 mph - N/A   Mostly Cloudy
7:15 PM 64.4 °F 53.1 °F 67% 30.04 in 10.0 mi North 9.2 mph - N/A   Scattered Clouds
7:35 PM 64.0 °F 52.7 °F 67% 30.07 in 10.0 mi North 10.4 mph - N/A Rain Light Rain
7:55 PM 58.3 °F 55.4 °F 90% 30.09 in 3.0 mi NNW 4.6 mph 23.0 mph 0.11 in Rain Rain
8:15 PM 61.2 °F 57.2 °F 87% 30.07 in 10.0 mi WNW 8.1 mph - 0.01 in   Mostly Cloudy
8:35 PM 59.2 °F 55.4 °F 87% 30.08 in 10.0 mi NW 8.1 mph - 0.01 in   Scattered Clouds
8:55 PM 57.0 °F 53.6 °F 88% 30.07 in 10.0 mi WNW 4.6 mph - 0.01 in   Clear
9:15 PM 55.9 °F 53.8 °F 92% 30.07 in 10.0 mi West 4.6 mph - N/A   Clear
9:35 PM 55.4 °F 53.1 °F 92% 30.09 in 10.0 mi NW 5.8 mph - N/A   Clear
9:55 PM 54.1 °F 53.1 °F 96% 30.10 in 10.0 mi WNW 5.8 mph - N/A   Clear
10:15 PM 54.0 °F 52.7 °F 95% 30.10 in 10.0 mi WNW 6.9 mph - N/A   Clear
10:35 PM 54.0 °F 52.5 °F 95% 30.11 in 10.0 mi NW 9.2 mph - N/A   Clear
10:55 PM 53.6 °F 52.3 °F 95% 30.11 in 10.0 mi WNW 6.9 mph - N/A   Clear
11:15 PM 52.7 °F 52.0 °F 97% 30.12 in 10.0 mi WNW 6.9 mph - N/A   Clear
11:35 PM 52.9 °F 52.2 °F 97% 30.13 in 10.0 mi West 6.9 mph - N/A   Clear
11:55 PM 52.7 °F 51.8 °F 97% 30.12 in 10.0 mi WNW 6.9 mph - N/A   Scattered Clouds